[[{"header":{"parameterUnit":"m.s-1","parameterCategory":1,"la1":30.2991,"la2":30.254,"lo1":-89.0895,"lo2":-89.0444,"dy":0.0017,"dx":0.0017,"nx":28,"ny":28,"refTime":"2024-02-17T03:00:00:Z","depth":0,"parameterNumber":2,"parameterNumberName":"U-component_of_WINDS"},"data":[0,0,0,0,0,0,0,0,0,0,0,0,0,0,0,0,0,0,0,0,0,0,0,0,0,0,0,0,0,0,0,0,0,0,0,0,0,0,0,0,0,0,0,0,0,0,0,0,0,0,0,0,0,0,0,0,0,0,-1.5291,-1.5291,0,-1.5325,-1.5325,-1.5326,-1.5286,-1.5284,-1.5283,-1.5282,-1.5319,-1.5322,-1.5324,0,0,0,0,0,0,0,0,0,0,0,0,0,-1.5192,-1.5194,-1.5291,-1.5291,-1.5291,-1.5325,-1.5325,-1.5326,-1.5286,-1.5284,-1.5283,-1.5281,-1.5319,-1.5321,-1.5324,0,0,0,0,0,0,0,0,0,0,0,0,0,-1.5232,-1.5195,-1.529,-1.5276,-1.5275,-1.5325,-1.5325,-1.5326,-1.5287,-1.5284,-1.5282,-1.528,-1.5318,-1.5321,-1.5325,-1.5392,0,0,-1.5336,-1.5337,0,0,0,0,0,0,0,0,-1.523,-1.5235,-1.5277,-1.5277,-1.5276,-1.5299,-1.5304,-1.5348,-1.5287,-1.5282,-1.5282,-1.5279,-1.5315,-1.5318,-1.533,-1.5394,-1.5395,-1.5336,-1.5338,-1.534,-1.5341,0,0,0,0,0,0,0,-1.5227,-1.5234,-1.5304,-1.5278,-1.5277,-1.5268,-1.5271,-1.5313,-1.5311,-1.5282,-1.528,-1.5284,-1.5314,-1.5326,-1.533,-1.5396,-1.5336,-1.5339,-1.5341,-1.5343,-1.5516,-1.5518,0,0,0,0,0,0,-1.5226,-1.5232,-1.5303,-1.5305,-1.5247,-1.5271,-1.5275,-1.5294,-1.531,-1.531,-1.5286,-1.5282,-1.5321,-1.5326,-1.5331,-1.5411,-1.534,-1.5343,-1.5345,-1.5514,-1.5517,-1.5519,0,0,0,0,0,0,-1.5224,-1.5232,-1.5302,-1.5268,-1.5276,-1.5275,-1.5297,-1.5296,-1.5308,-1.5313,-1.5312,-1.5299,-1.532,-1.5326,-1.5377,-1.5412,-1.5345,-1.5348,-1.5511,-1.5515,-1.5518,-1.5572,0,0,0,0,0,0,-1.5221,-1.5232,-1.5257,-1.5268,-1.5278,-1.5346,-1.5299,-1.5298,-1.5314,-1.531,-1.5325,-1.5325,-1.5318,-1.5372,-1.538,-1.5416,-1.5351,-1.5508,-1.5513,-1.5517,-1.5567,-1.5577,-1.5585,0,0,0,0,0,-1.5218,-1.5271,-1.5259,-1.5267,-1.5309,-1.5348,-1.5354,-1.5344,-1.5317,-1.5343,-1.5345,-1.5325,-1.5406,-1.5377,-1.5387,-1.5424,-1.5506,-1.5511,-1.5517,-1.5563,-1.5575,-1.5585,0,0,0,0,0,0,-1.5265,-1.5273,-1.5259,-1.5318,-1.5333,-1.5342,-1.5374,-1.5357,-1.5381,-1.5376,-1.5363,-1.5367,-1.542,-1.5427,-1.5394,-1.5489,-1.5452,-1.5459,-1.5483,-1.5495,-1.5504,-1.5502,-1.5354,0,0,0,0,0,-1.5283,-1.5313,-1.5318,-1.537,-1.5378,-1.5375,-1.5391,-1.5382,-1.5398,-1.5404,-1.541,-1.5427,-1.5456,-1.5475,-1.5503,-1.5567,-1.557,-1.5597,-1.5606,-1.5613,-1.5621,-1.5655,-1.5667,-1.5537,-1.5537,-1.5537,0,0,-1.5319,-1.5327,-1.5347,-1.538,-1.539,-1.5423,-1.538,-1.5417,-1.5441,-1.541,-1.5458,-1.5463,-1.548,-1.5538,-1.5563,-1.5545,-1.5657,-1.5621,-1.5626,-1.563,-1.5662,-1.5674,-1.5685,-1.5541,-1.554,-1.554,0,0,-1.5402,-1.5411,-1.5455,-1.5466,-1.5482,-1.5479,-1.5489,-1.5501,-1.5503,-1.555,-1.5527,-1.5556,-1.5607,-1.562,-1.5633,-1.572,-1.5702,-1.5729,-1.5777,-1.5811,-1.5821,-1.583,-1.5862,-1.5873,-1.5736,-1.5736,-1.5736,0,-1.5446,-1.5493,-1.548,-1.5517,-1.5532,-1.5504,-1.5549,-1.556,-1.5585,-1.5596,-1.5574,-1.5637,-1.5646,-1.5707,-1.5728,-1.5739,-1.5751,-1.5728,-1.5821,-1.583,-1.5838,-1.5868,-1.5879,-1.5739,-1.5739,-1.5738,-1.5738,0,-1.5546,-1.5579,-1.5613,-1.5636,-1.5655,-1.5696,-1.5689,-1.571,-1.5698,-1.5698,-1.5747,-1.5757,-1.5785,-1.5799,-1.5789,-1.5858,-1.5845,-1.5822,-1.5785,-1.5854,-1.5882,-1.5893,-1.5744,-1.5742,-1.5741,-1.5741,0,0,-1.5662,-1.5676,-1.5689,-1.5699,-1.5714,-1.5739,-1.5779,-1.5806,-1.5824,-1.5841,-1.5875,-1.5917,-1.5896,-1.5911,-1.5902,-1.5931,-1.5999,-1.5904,-1.5904,-1.5922,-1.6076,-1.6094,-1.6107,-1.5986,-1.5989,-1.599,-1.6075,0,-1.5746,-1.5814,-1.5802,-1.5869,-1.5899,-1.5872,-1.5906,-1.592,-1.592,-1.5946,-1.5946,-1.5977,-1.5946,-1.5955,-1.5983,-1.5985,-1.603,-1.5979,-1.6018,-1.602,-1.6016,-1.6122,-1.6141,-1.6221,-1.6085,-1.6087,-1.6089,0,-1.5853,-1.5873,-1.5943,-1.5952,-1.5964,-1.5995,-1.6019,-1.6044,-1.6058,-1.6056,-1.6072,-1.6057,-1.6097,-1.6057,-1.6112,-1.6078,-1.6093,-1.6096,-1.6099,-1.6103,-1.6059,-1.613,-1.6246,-1.6258,-1.6106,-1.6104,-1.6103,0,-1.5932,-1.5976,-1.6023,-1.6032,-1.6044,-1.6067,-1.6073,-1.6085,-1.6101,-1.6122,-1.6133,-1.6158,-1.6172,-1.6192,-1.6184,-1.6156,-1.624,-1.62,-1.6241,-1.6241,-1.6261,-1.626,-1.6382,-1.6269,-1.6269,-1.6269,-1.6268,0,-1.6027,-1.6071,-1.6059,-1.6088,-1.6136,-1.6121,-1.6169,-1.6172,-1.6183,-1.6212,-1.619,-1.6218,-1.6206,-1.6233,-1.6227,-1.6274,-1.628,-1.628,-1.6278,-1.6283,-1.6283,-1.6294,-1.6288,-1.6272,-1.6271,-1.6271,-1.627,0,-1.6124,-1.6117,-1.6167,-1.6173,-1.6176,-1.6211,-1.6217,-1.6244,-1.6242,-1.628,-1.6288,-1.6285,-1.6316,-1.6309,-1.6344,-1.634,-1.6398,-1.6389,-1.6393,-1.6391,-1.6433,-1.6429,-1.6566,-1.6584,-1.6459,-1.646,-1.6461,0,-1.6186,-1.6219,-1.6228,-1.6246,-1.6254,-1.6282,-1.6299,-1.6286,-1.6304,-1.6322,-1.6347,-1.6376,-1.6398,-1.6449,-1.645,-1.6476,-1.6468,-1.6514,-1.6472,-1.6475,-1.647,-1.6468,-1.6472,-1.6523,-1.6525,-1.6526,-1.6527,0,-1.6297,-1.6292,-1.6316,-1.6339,-1.6359,-1.6377,-1.6393,-1.6408,-1.6397,-1.6418,-1.6449,-1.6466,-1.65,-1.653,-1.6553,-1.656,-1.6542,-1.654,-1.6551,-1.6556,-1.6558,-1.6558,-1.6417,-1.6537,-1.6536,-1.6535,-1.6535,-1.6534,-1.6379,-1.6407,-1.6417,-1.6445,-1.6455,-1.647,-1.6496,-1.6496,-1.6521,-1.6548,-1.6538,-1.6574,-1.6586,-1.6616,-1.6625,-1.6653,-1.6636,-1.6652,-1.6656,-1.666,-1.6665,-1.6552,-1.6657,-1.6657,-1.6657,-1.6656,-1.6656,0,-1.649,-1.6495,-1.652,-1.6542,-1.6564,-1.6543,-1.6559,-1.6579,-1.661,-1.6623,-1.6645,-1.668,-1.6707,-1.671,-1.6736,-1.6758,-1.675,-1.6765,-1.6764,-1.6766,-1.6679,-1.6667,-1.6771,-1.6771,-1.6771,-1.6771,-1.6771,-1.6771,-1.655,-1.6595,-1.6591,-1.6642,-1.6646,-1.668,-1.6691,-1.6705,-1.6715,-1.6755,-1.6777,-1.6778,-1.6787,-1.6813,-1.6838,-1.6838,-1.6849,-1.6867,-1.6864,-1.6783,-1.6772,-1.6761,-1.675,-1.6869,-1.687,-1.6949,-1.6949,-1.695]},{"header":{"parameterUnit":"m.s-1","parameterCategory":1,"la1":30.2991,"la2":30.254,"lo1":-89.0895,"lo2":-89.0444,"dy":0.0017,"dx":0.0017,"nx":28,"ny":28,"refTime":"2024-02-17T03:00:00:Z","depth":0,"parameterNumber":3,"parameterNumberName":"V-component_of_WINDS"},"data":[0,0,0,0,0,0,0,0,0,0,0,0,0,0,0,0,0,0,0,0,0,0,0,0,0,0,0,0,0,0,0,0,0,0,0,0,0,0,0,0,0,0,0,0,0,0,0,0,0,0,0,0,0,0,0,0,0,0,-8.4465,-8.4467,0,-8.4625,-8.4627,-8.4628,-8.4562,-8.4558,-8.4554,-8.4551,-8.4707,-8.4714,-8.4722,0,0,0,0,0,0,0,0,0,0,0,0,0,-8.4095,-8.4102,-8.4465,-8.4467,-8.4469,-8.4624,-8.4627,-8.4629,-8.4563,-8.4558,-8.4554,-8.4549,-8.4704,-8.4713,-8.4722,0,0,0,0,0,0,0,0,0,0,0,0,0,-8.4255,-8.4104,-8.4464,-8.4455,-8.4456,-8.4624,-8.4627,-8.4629,-8.4564,-8.4558,-8.4552,-8.4547,-8.4701,-8.4712,-8.4724,-8.4909,0,0,-8.4759,-8.4764,0,0,0,0,0,0,0,0,-8.4246,-8.4268,-8.4454,-8.4456,-8.4457,-8.4568,-8.4553,-8.4723,-8.4565,-8.4522,-8.4551,-8.4544,-8.4665,-8.4679,-8.4721,-8.4916,-8.4923,-8.476,-8.4767,-8.4772,-8.4775,0,0,0,0,0,0,0,-8.4235,-8.4261,-8.4528,-8.4457,-8.4459,-8.444,-8.4456,-8.4585,-8.4623,-8.4526,-8.4521,-8.4542,-8.4664,-8.471,-8.4724,-8.4925,-8.476,-8.477,-8.4777,-8.4781,-8.5279,-8.5285,0,0,0,0,0,0,-8.4225,-8.4252,-8.4523,-8.4533,-8.4335,-8.4451,-8.447,-8.4538,-8.4622,-8.4629,-8.4546,-8.4538,-8.4693,-8.4711,-8.4729,-8.4952,-8.4772,-8.4783,-8.4789,-8.5273,-8.5281,-8.5288,0,0,0,0,0,0,-8.4217,-8.4249,-8.4516,-8.4392,-8.4424,-8.4464,-8.4541,-8.4544,-8.459,-8.4637,-8.4643,-8.4587,-8.4689,-8.4713,-8.4865,-8.4956,-8.4788,-8.4798,-8.5266,-8.5276,-8.5284,-8.5398,0,0,0,0,0,0,-8.4207,-8.4247,-8.432,-8.4394,-8.4431,-8.4652,-8.4546,-8.4551,-8.4611,-8.4601,-8.4677,-8.4684,-8.4687,-8.4848,-8.4877,-8.4969,-8.4807,-8.5258,-8.527,-8.5281,-8.5386,-8.541,-8.5431,0,0,0,0,0,-8.4194,-8.4343,-8.4324,-8.4356,-8.4523,-8.4658,-8.4679,-8.4681,-8.4619,-8.4691,-8.4721,-8.4681,-8.4942,-8.4865,-8.4896,-8.4993,-8.5252,-8.5267,-8.528,-8.5376,-8.5406,-8.543,0,0,0,0,0,0,-8.4276,-8.4353,-8.4332,-8.4511,-8.4579,-8.4646,-8.4737,-8.4712,-8.4797,-8.4784,-8.4781,-8.4799,-8.4956,-8.4989,-8.4902,-8.5176,-8.5087,-8.5108,-8.5149,-8.5177,-8.5199,-8.5188,-8.4817,0,0,0,0,0,-8.4315,-8.4421,-8.4481,-8.4633,-8.4668,-8.4697,-8.4756,-8.4753,-8.4821,-8.4849,-8.489,-8.4957,-8.5053,-8.5117,-8.5208,-8.5391,-8.5406,-8.5473,-8.5495,-8.5513,-8.5531,-8.563,-8.566,-8.5334,-8.5334,-8.5334,0,0,-8.4397,-8.4452,-8.4518,-8.4651,-8.4703,-8.481,-8.4722,-8.4838,-8.4917,-8.4866,-8.5013,-8.5046,-8.5119,-8.5288,-8.5363,-8.532,-8.5625,-8.5531,-8.5545,-8.5554,-8.5648,-8.5678,-8.5706,-8.5344,-8.5342,-8.5341,0,0,-8.46,-8.4653,-8.4786,-8.4841,-8.4922,-8.494,-8.4972,-8.5045,-8.5065,-8.5214,-8.5177,-8.5269,-8.5436,-8.549,-8.5539,-8.5765,-8.5731,-8.5794,-8.591,-8.6006,-8.6032,-8.6055,-8.6135,-8.6164,-8.5812,-8.5812,-8.5813,0,-8.4691,-8.4854,-8.4856,-8.4978,-8.5037,-8.4998,-8.5131,-8.5183,-8.5289,-8.5329,-8.5279,-8.5489,-8.5535,-8.5716,-8.5771,-8.5812,-8.5847,-8.5786,-8.6029,-8.6051,-8.6073,-8.6149,-8.6179,-8.582,-8.5819,-8.5818,-8.5817,0,-8.4961,-8.5074,-8.5171,-8.5278,-8.5348,-8.5474,-8.5494,-8.5564,-8.5554,-8.5577,-8.5728,-8.5782,-8.5885,-8.5927,-8.5917,-8.6106,-8.6077,-8.6028,-8.5938,-8.6111,-8.6183,-8.6212,-8.583,-8.5827,-8.5825,-8.5823,0,0,-8.5221,-8.5329,-8.5364,-8.5413,-8.55,-8.5586,-8.5709,-8.5813,-8.5872,-8.5946,-8.6049,-8.6192,-8.6148,-8.6203,-8.6199,-8.6284,-8.6459,-8.6225,-8.6226,-8.6266,-8.667,-8.6706,-8.6741,-8.6437,-8.6443,-8.6447,-8.6664,0,-8.5431,-8.5652,-8.5659,-8.5859,-8.5964,-8.5928,-8.6036,-8.6099,-8.6124,-8.6214,-8.6239,-8.6341,-8.6275,-8.6309,-8.6391,-8.6421,-8.654,-8.6405,-8.6531,-8.6535,-8.6514,-8.6778,-8.6817,-8.7019,-8.6692,-8.6697,-8.67,0,-8.5707,-8.5794,-8.6006,-8.6079,-8.6123,-8.622,-8.6315,-8.6402,-8.6472,-8.6484,-8.6548,-8.6532,-8.6655,-8.6562,-8.6732,-8.664,-8.6691,-8.6714,-8.6721,-8.6733,-8.6628,-8.6797,-8.7083,-8.7114,-8.6744,-8.6741,-8.6737,0,-8.5876,-8.6045,-8.6194,-8.6236,-8.6325,-8.6394,-8.6433,-8.6499,-8.656,-8.6642,-8.6682,-8.6776,-8.6827,-8.6899,-8.6908,-8.6839,-8.7079,-8.6986,-8.7091,-8.7091,-8.7143,-8.714,-8.7442,-8.7176,-8.7176,-8.7175,-8.7174,0,-8.6111,-8.6242,-8.6271,-8.6363,-8.6509,-8.6513,-8.6656,-8.6689,-8.6748,-8.6844,-8.6818,-8.6907,-8.6914,-8.7005,-8.7012,-8.7152,-8.7175,-8.7186,-8.7187,-8.7189,-8.7188,-8.7223,-8.7209,-8.7183,-8.7181,-8.718,-8.7178,0,-8.6324,-8.6349,-8.651,-8.6581,-8.6602,-8.6706,-8.6766,-8.6852,-8.6874,-8.6996,-8.7025,-8.7059,-8.7165,-8.7181,-8.7305,-8.731,-8.7477,-8.7463,-8.7455,-8.7453,-8.7557,-8.7547,-8.7892,-8.7938,-8.7642,-8.7645,-8.7647,0,-8.6473,-8.6573,-8.6657,-8.6721,-8.6765,-8.6868,-8.6931,-8.6939,-8.7006,-8.7095,-8.717,-8.7274,-8.7359,-8.753,-8.7564,-8.7658,-8.7646,-8.776,-8.766,-8.7659,-8.7648,-8.7642,-8.7652,-8.778,-8.7783,-8.7786,-8.7788,0,-8.6734,-8.6742,-8.6836,-8.6936,-8.7013,-8.7091,-8.7164,-8.7217,-8.7233,-8.7309,-8.742,-8.7485,-8.7613,-8.7717,-8.7811,-8.7848,-8.7821,-8.7819,-8.7849,-8.7852,-8.7844,-8.785,-8.7508,-8.7811,-8.7809,-8.7807,-8.7806,-8.7805,-8.692,-8.7008,-8.7081,-8.7187,-8.7243,-8.7313,-8.7398,-8.7432,-8.7525,-8.7632,-8.763,-8.7751,-8.7818,-8.7942,-8.7986,-8.8079,-8.8041,-8.8084,-8.8094,-8.8105,-8.8115,-8.7829,-8.8096,-8.8095,-8.8094,-8.8094,-8.8093,0,-8.718,-8.7225,-8.7323,-8.7428,-8.7511,-8.7481,-8.756,-8.7631,-8.7739,-8.7805,-8.789,-8.8016,-8.8116,-8.8159,-8.8257,-8.8323,-8.8313,-8.8348,-8.8344,-8.8353,-8.8143,-8.8108,-8.8355,-8.8355,-8.8355,-8.8355,-8.8355,-8.8355,-8.7325,-8.7473,-8.7489,-8.7664,-8.7708,-8.7829,-8.7877,-8.794,-8.7993,-8.8137,-8.8222,-8.825,-8.8306,-8.8408,-8.8498,-8.8508,-8.8545,-8.8586,-8.859,-8.8394,-8.8367,-8.8342,-8.8309,-8.8594,-8.8595,-8.8792,-8.8794,-8.8795]}]]